Regional Weather Roundup
Issued by NWS

Home | Current Version | Previous Version | Graphics & Text | Print | Product List | Glossary On
Versions: 1 2 3 4 5 6 7 8 9 10 11 12 13 14 15 16 17 18 19 20 21 22 23 24 25 26 27 28 29 30 31 32 33 34 35 36 37 38 39 40 41 42 43 44 45 46 47 48 49 50
000
ASUS43 KOAX 300610
RWRNE

WEATHER ROUNDUP FOR NEBRASKA
NATIONAL WEATHER SERVICE OMAHA NE
100 AM CDT WED JUL 30 2014

NOTES: SATELLITE DATA IS BEING USED TO AUGMENT CLOUD COVER ABOVE
       12000 FEET.
       "FAIR" INDICATES FEW OR NO CLOUDS BELOW 12,000 FEET WITH NO
       SIGNIFICANT WEATHER AND/OR OBSTRUCTIONS TO VISIBILITY.

  * THESE STATIONS DO NOT REPORT WEATHER SUCH AS RAIN...SNOW OR FOG.

NEZ001>004-019>022-054>056-300700-
NEBRASKA PANHANDLE

CITY           SKY/WX    TMP DP  RH WIND       PRES   REMARKS
SCOTTSBLUFF    CLOUDY    65  63  93 NW3       30.26S
6HR MIN TEMP:  65; 6HR MAX TEMP:  72; 6HR PCP:  0.05;

ALLIANCE       CLOUDY    65  53  65 E7        30.25S
6HR MIN TEMP:  65; 6HR MAX TEMP:  73; 6HR PCP: TRACE;

CHADRON        CLOUDY    58  54  86 W5        30.24R
6HR MIN TEMP:  56; 6HR MAX TEMP:  75; 6HR PCP: TRACE;

KIMBALL        RAIN      59  58  96 NE3       30.28S
SIDNEY         LGT RAIN  63  61  93 CALM      30.27S
6HR MIN TEMP:  61; 6HR MAX TEMP:  78; 6HR PCP:  0.10;

$$

NEZ057>060-069>072-079>082-300700-
SOUTHWEST NEBRASKA

CITY           SKY/WX    TMP DP  RH WIND       PRES   REMARKS
NORTH PLATTE   CLOUDY    65  60  84 E5        30.20R
6HR MIN TEMP:  65; 6HR MAX TEMP:  76; 6HR PCP: TRACE;

IMPERIAL       LGT RAIN  64  61  90 NE15      30.22R
6HR MIN TEMP:  64; 6HR MAX TEMP:  80; 6HR PCP:  0.02;

LEXINGTON      CLOUDY    69  60  75 SE8       30.18S
MCCOOK         CLOUDY    69  59  70 NE12      30.18R THUNDER
6HR MIN TEMP:  69; 6HR MAX TEMP:  82;

OGALLALA       DRIZZLE   65  61  87 E6        30.21S
$$

NEZ005>010-023>029-035>040-094-300700-
NORTH CENTRAL NEBRASKA

CITY           SKY/WX    TMP DP  RH WIND       PRES   REMARKS
VALENTINE      PTCLDY    54  50  86 W3        30.20S
6HR MIN TEMP:  54; 6HR MAX TEMP:  77;

AINSWORTH      PTCLDY    58  53  80 W3        30.19F
BROKEN BOW     CLOUDY    67  59  75 SE3       30.18F
6HR MIN TEMP:  66; 6HR MAX TEMP:  78;

O`NEILL        PTCLDY    61  55  78 SE3       30.18S
ORD            MOCLDY    61  59  93 CALM      30.17S
6HR MIN TEMP:  60; 6HR MAX TEMP:  75;

THEDFORD       CLOUDY    64  56  76 CALM      30.21F
$$

NEZ041-046>049-061>064-073>077-083>087-300700-
SOUTH CENTRAL NEBRASKA

CITY           SKY/WX    TMP DP  RH WIND       PRES   REMARKS
GRAND ISLAND   CLOUDY    65  61  87 NE5       30.17S
6HR MIN TEMP:  65; 6HR MAX TEMP:  77;

AURORA         CLOUDY    65  62  88 E5        30.16F
HASTINGS       CLOUDY    68  54  60 E6        30.16S
6HR MIN TEMP:  68; 6HR MAX TEMP:  77;

HEBRON         CLOUDY    64  56  77 CALM      30.15S
HOLDREGE       CLOUDY    66  59  79 E7        30.17S
KEARNEY *      CLOUDY    66  57  72 E5        30.17S
YORK           CLOUDY    64  59  82 E5        30.16F
$$

NEZ011>018-030>034-042>045-300700-
NORTHEAST NEBRASKA

CITY           SKY/WX    TMP DP  RH WIND       PRES   REMARKS
NORFOLK        CLEAR     59  54  83 CALM      30.16S
6HR MIN TEMP:  57; 6HR MAX TEMP:  77;

ALBION         PTCLDY    58  55  89 CALM      30.18S
BLAIR          CLEAR     62  53  73 CALM      30.14S
COLUMBUS *     PTCLDY    59  54  82 CALM      30.16F
FREMONT        CLEAR     61  57  86 CALM      30.15S
TEKAMAH        CLEAR     57  54  89 W3        30.15R
6HR MIN TEMP:  57; 6HR MAX TEMP:  78;

WAYNE          CLEAR     55  53  95 CALM      30.17R
$$

NEZ050>053-065>068-078-088>093-300700-
SOUTHEAST NEBRASKA

CITY           SKY/WX    TMP DP  RH WIND       PRES   REMARKS
LINCOLN        MOCLDY    64  57  78 N6        30.15S
6HR MIN TEMP:  64; 6HR MAX TEMP:  78;

OMAHA EPPLEY   PTCLDY    60  55  83 NW3       30.14R
6HR MIN TEMP:  60; 6HR MAX TEMP:  77;

BEATRICE       PTCLDY    62  57  86 NE5       30.13F
FALLS CITY     CLEAR     63  57  81 CALM      30.12S
6HR MIN TEMP:  63; 6HR MAX TEMP:  77;

NEBRASKA CITY  CLEAR     63  56  78 CALM      30.14S
PLATTSMOUTH    CLEAR     63  55  76 CALM      30.14S
$$

NEZ044-045-051>053-067-300700-
OMAHA AREA

CITY           SKY/WX    TMP DP  RH WIND       PRES   REMARKS
OMAHA EPPLEY   PTCLDY    60  55  83 NW3       30.14R
6HR MIN TEMP:  60; 6HR MAX TEMP:  77;

BLAIR          CLEAR     62  53  73 CALM      30.14S
FREMONT        CLEAR     61  57  86 CALM      30.15S
MILLARD        CLEAR     61  58  89 CALM      30.14S
OFFUTT AFB     CLEAR     56  56  99 CALM      30.14R
PLATTSMOUTH    CLEAR     63  55  76 CALM      30.14S
WAHOO          FAIR      61  57  86 NW5       30.15S
$$


USA.gov is the U.S. government's official web portal to all federal, state and local government web resources and services.